Regional Weather Roundup
Issued by NWS

Home | Current Version | Previous Version | Graphics & Text | Print | Product List | Glossary Off
Versions: 1 2 3 4 5 6 7 8 9 10 11 12 13 14 15 16 17 18 19 20 21 22 23 24 25 26 27 28 29 30 31 32 33 34 35 36 37 38 39 40 41 42 43 44 45 46 47 48 49 50

000
ASUS43 KOAX 211702
RWRNE

WEATHER ROUNDUP FOR NEBRASKA
NATIONAL WEATHER SERVICE OMAHA NE
1200 PM CDT SUN SEP 21 2014

NOTES: SATELLITE DATA IS BEING USED TO AUGMENT CLOUD COVER ABOVE
       12000 FEET.
       "FAIR" INDICATES FEW OR NO CLOUDS BELOW 12,000 FEET WITH NO
       SIGNIFICANT WEATHER AND/OR OBSTRUCTIONS TO VISIBILITY.

  * THESE STATIONS DO NOT REPORT WEATHER SUCH AS RAIN...SNOW OR FOG.

NEZ001>004-019>022-054>056-211800-
NEBRASKA PANHANDLE

CITY           SKY/WX    TMP DP  RH WIND       PRES   REMARKS
SCOTTSBLUFF    CLOUDY    65  39  38 SE9       30.39F
ALLIANCE       CLOUDY    66  36  32 MISG      30.39S
CHADRON        MOSUNNY   68  37  32 S6        30.37S
KIMBALL        CLOUDY    65  36  33 SE10      30.39S
SIDNEY         MOSUNNY   66  38  35 SE7       30.40F
$$

NEZ057>060-069>072-079>082-211800-
SOUTHWEST NEBRASKA

CITY           SKY/WX    TMP DP  RH WIND       PRES   REMARKS
NORTH PLATTE   MOSUNNY   69  43  38 VRB6      30.36S
IMPERIAL       PTSUNNY   69  34  27 E8        30.37F
LEXINGTON      SUNNY     71  39  31 N9        30.34S
MCCOOK         MOSUNNY   72  38  29 NE8G16    30.35S
OGALLALA       CLOUDY    68  41  37 CALM      30.38S
$$

NEZ005>010-023>029-035>040-094-211800-
NORTH CENTRAL NEBRASKA

CITY           SKY/WX    TMP DP  RH WIND       PRES   REMARKS
VALENTINE      SUNNY     69  37  30 N12       30.34S
AINSWORTH      SUNNY     66  39  36 N14G21    30.34S
BROKEN BOW     SUNNY     71  38  29 NW9       30.33S
O`NEILL        SUNNY     67  47  48 NW12      30.32S
ORD            SUNNY     69  42  37 N14       30.30S
THEDFORD       SUNNY     69  39  34 N7        30.37S
$$

NEZ041-046>049-061>064-073>077-083>087-211800-
SOUTH CENTRAL NEBRASKA

CITY           SKY/WX    TMP DP  RH WIND       PRES   REMARKS
GRAND ISLAND   SUNNY     71  41  33 N16G23    30.31R
AURORA         SUNNY     69  39  32 N12G20    30.30R
HASTINGS       SUNNY     70  41  34 N13       30.31R
HEBRON         SUNNY     72  37  27 N13       30.27S
HOLDREGE       SUNNY     69  39  33 NE8       30.33S
KEARNEY *      SUNNY     70  39  32 N9        30.33S
YORK           SUNNY     68  46  45 N9G17     30.29R
$$

NEZ011>018-030>034-042>045-211800-
NORTHEAST NEBRASKA

CITY           SKY/WX    TMP DP  RH WIND       PRES   REMARKS
NORFOLK        SUNNY     68  46  45 NW15G24   30.27S
ALBION         SUNNY     68  41  37 N14       30.29F
BLAIR          SUNNY     67  49  51 NW13G21   30.23S
COLUMBUS *     SUNNY     70  45  40 N14       30.28S
FREMONT        SUNNY     69  47  46 NW13G21   30.25S
TEKAMAH        SUNNY     70  47  43 N17G24    30.23S
WAYNE          SUNNY     67  48  49 N13G20    30.26S
$$

NEZ050>053-065>068-078-088>093-211800-
SOUTHEAST NEBRASKA

CITY           SKY/WX    TMP DP  RH WIND       PRES   REMARKS
LINCOLN        SUNNY     71  46  40 N17G24    30.26R
OMAHA EPPLEY   MOSUNNY   68  48  48 NW20      30.22S
BEATRICE       SUNNY     74  44  35 N20       30.25S
FALLS CITY     SUNNY     73  46  38 N14G25    30.20S
NEBRASKA CITY    N/A     69  37  30 N14       30.23R
PLATTSMOUTH    SUNNY     68  45  43 N13G20    30.23S
$$

NEZ044-045-051>053-067-211800-
OMAHA AREA

CITY           SKY/WX    TMP DP  RH WIND       PRES   REMARKS
OMAHA EPPLEY   MOSUNNY   68  48  48 NW20      30.22S
BLAIR          SUNNY     67  49  51 NW13G21   30.23S
FREMONT        SUNNY     69  47  46 NW13G21   30.25S
MILLARD        SUNNY     68  49  49 N9G18     30.23S
OFFUTT AFB     SUNNY     69  50  50 NW13      30.22S
PLATTSMOUTH    SUNNY     68  45  43 N13G20    30.23S
WAHOO          FAIR      70  44  38 MISG      30.25S
$$


USA.gov is the U.S. government's official web portal to all federal, state and local government web resources and services.